Time,TemperatureF,DewpointF,PressureIn,WindDirection,WindDirectionDegrees,WindSpeedMPH,WindSpeedGustMPH,Humidity,HourlyPrecipIn,Conditions,Clouds,dailyrainin,SoftwareType,DateUTC
2013-08-26 00:00:00,66.1,54.8,30.12,SSW,208,0.0,0.0,67,0.00,,,-99.99,VWS V12.06,2013-08-26 04:00:00,
2013-08-26 00:15:00,66.0,55.2,30.12,SSW,208,0.0,0.0,68,0.00,,,-99.99,VWS V12.06,2013-08-26 04:15:00,
2013-08-26 00:30:00,66.0,55.2,30.12,ESE,117,0.0,0.0,68,0.00,,,-99.99,VWS V12.06,2013-08-26 04:30:00,
2013-08-26 00:45:00,66.0,55.2,30.12,NE,44,0.0,0.0,68,0.00,,,-99.99,VWS V12.06,2013-08-26 04:45:00,
2013-08-26 01:00:00,66.0,55.5,30.11,NE,44,0.0,0.0,69,0.00,,,-99.99,VWS V12.06,2013-08-26 05:00:00,
2013-08-26 01:15:00,65.8,55.4,30.11,NE,44,0.0,0.0,69,0.00,,,-99.99,VWS V12.06,2013-08-26 05:15:00,
2013-08-26 01:30:00,65.6,55.2,30.11,NE,44,0.0,0.0,69,0.00,,,-99.99,VWS V12.06,2013-08-26 05:30:00,
2013-08-26 01:45:00,65.6,54.8,30.11,NE,44,0.0,0.0,68,0.00,,,-99.99,VWS V12.06,2013-08-26 05:45:00,
2013-08-26 02:00:00,66.1,54.4,30.10,North,0,0.0,2.0,66,0.00,,,-99.99,VWS V12.06,2013-08-26 06:00:00,
2013-08-26 02:15:00,66.6,54.1,30.10,SSE,157,0.0,2.0,64,0.00,,,-99.99,VWS V12.06,2013-08-26 06:15:00,
2013-08-26 02:30:00,66.8,54.2,30.10,East,92,0.0,1.0,64,0.00,,,-99.99,VWS V12.06,2013-08-26 06:30:00,
2013-08-26 02:45:00,66.8,54.2,30.10,NNE,21,0.0,0.0,64,0.00,,,-99.99,VWS V12.06,2013-08-26 06:45:00,
2013-08-26 03:00:00,66.6,54.5,30.09,NNW,330,0.0,1.0,65,0.00,,,-99.99,VWS V12.06,2013-08-26 07:00:00,
2013-08-26 03:15:00,66.3,55.0,30.09,NNW,335,0.0,1.0,67,0.00,,,-99.99,VWS V12.06,2013-08-26 07:15:00,
2013-08-26 03:30:00,65.6,55.2,30.09,North,0,0.0,3.0,69,0.00,,,-99.99,VWS V12.06,2013-08-26 07:30:00,
2013-08-26 03:45:00,65.2,55.2,30.08,North,0,0.0,0.0,70,0.00,,,-99.99,VWS V12.06,2013-08-26 07:45:00,
2013-08-26 04:00:00,65.0,55.4,30.08,NNE,25,0.0,0.0,71,0.00,,,-99.99,VWS V12.06,2013-08-26 08:00:00,
2013-08-26 04:15:00,64.8,55.2,30.07,NNE,25,0.0,0.0,71,0.00,,,-99.99,VWS V12.06,2013-08-26 08:15:00,
2013-08-26 04:30:00,64.7,55.1,30.07,NNE,20,0.0,0.0,71,0.00,,,-99.99,VWS V12.06,2013-08-26 08:30:00,
2013-08-26 04:45:00,64.8,54.8,30.07,NNE,20,0.0,0.0,70,0.00,,,-99.99,VWS V12.06,2013-08-26 08:45:00,
2013-08-26 05:00:00,64.8,55.2,30.06,NNE,20,0.0,0.0,71,0.00,,,-99.99,VWS V12.06,2013-08-26 09:00:00,
2013-08-26 05:15:00,64.8,54.8,30.06,NNE,20,0.0,0.0,70,0.00,,,-99.99,VWS V12.06,2013-08-26 09:15:00,
2013-08-26 05:30:00,64.8,55.2,30.06,NNE,21,0.0,0.0,71,0.00,,,-99.99,VWS V12.06,2013-08-26 09:30:00,
2013-08-26 05:45:00,65.2,55.2,30.05,NNE,18,0.0,1.0,70,0.00,,,-99.99,VWS V12.06,2013-08-26 09:45:00,
2013-08-26 06:00:00,65.3,55.3,30.05,NNE,18,0.0,0.0,70,0.00,,,-99.99,VWS V12.06,2013-08-26 10:00:00,
2013-08-26 06:15:00,65.5,55.1,30.04,SSW,213,0.0,4.0,69,0.00,,,-99.99,VWS V12.06,2013-08-26 10:15:00,
2013-08-26 06:30:00,65.5,55.5,30.04,SW,216,0.0,0.0,70,0.00,,,-99.99,VWS V12.06,2013-08-26 10:30:00,
2013-08-26 06:45:00,65.2,56.0,30.04,SSW,193,0.0,1.0,72,0.00,,,-99.99,VWS V12.06,2013-08-26 10:45:00,
2013-08-26 07:00:00,65.0,55.8,30.03,SW,222,0.0,0.0,72,0.00,,,-99.99,VWS V12.06,2013-08-26 11:00:00,
2013-08-26 07:15:00,64.8,56.0,30.03,SW,219,0.0,0.0,73,0.00,,,-99.99,VWS V12.06,2013-08-26 11:15:00,
2013-08-26 07:30:00,64.5,56.4,30.04,SW,217,0.0,1.0,75,0.00,,,-99.99,VWS V12.06,2013-08-26 11:30:00,
2013-08-26 07:45:00,64.5,56.4,30.04,NE,38,0.0,0.0,75,0.00,,,-99.99,VWS V12.06,2013-08-26 11:45:00,
2013-08-26 08:00:00,64.7,56.6,30.03,NE,38,2.0,2.0,75,0.00,,,-99.99,VWS V12.06,2013-08-26 12:00:00,
2013-08-26 08:15:00,65.0,56.9,30.02,NE,38,0.0,0.0,75,0.00,,,-99.99,VWS V12.06,2013-08-26 12:15:00,
2013-08-26 08:30:00,65.6,57.5,30.02,NNE,31,0.0,2.0,75,0.00,,,-99.99,VWS V12.06,2013-08-26 12:30:00,
2013-08-26 08:45:00,66.0,57.9,30.01,NNE,23,0.0,1.0,75,0.00,,,-99.99,VWS V12.06,2013-08-26 12:45:00,
2013-08-26 09:00:00,66.1,58.0,30.01,NNE,23,0.0,0.0,75,0.00,,,-99.99,VWS V12.06,2013-08-26 13:00:00,
2013-08-26 09:15:00,66.4,57.9,30.01,NNE,13,0.0,2.0,74,0.00,,,-99.99,VWS V12.06,2013-08-26 13:15:00,
2013-08-26 09:30:00,66.9,58.3,30.01,NNE,18,0.0,0.0,74,0.00,,,-99.99,VWS V12.06,2013-08-26 13:30:00,
2013-08-26 09:45:00,67.6,58.7,30.00,East,90,1.0,2.0,73,0.00,,,-99.99,VWS V12.06,2013-08-26 13:45:00,
2013-08-26 10:00:00,68.4,58.6,30.00,SSE,151,1.0,1.0,71,0.00,,,-99.99,VWS V12.06,2013-08-26 14:00:00,
2013-08-26 10:15:00,70.4,59.8,29.99,NNE,18,0.0,2.0,69,0.00,,,-99.99,VWS V12.06,2013-08-26 14:15:00,
2013-08-26 10:30:00,72.7,60.7,29.98,ESE,114,0.0,1.0,66,0.00,,,-99.99,VWS V12.06,2013-08-26 14:30:00,
2013-08-26 10:45:00,74.0,60.2,29.97,SSW,210,0.0,3.0,62,0.00,,,-99.99,VWS V12.06,2013-08-26 14:45:00,
2013-08-26 11:00:00,74.9,61.0,29.96,North,6,1.0,3.0,62,0.00,,,-99.99,VWS V12.06,2013-08-26 15:00:00,
2013-08-26 11:15:00,75.6,60.3,29.96,NE,51,0.0,5.0,59,0.00,,,-99.99,VWS V12.06,2013-08-26 15:15:00,
2013-08-26 11:30:00,75.1,60.8,29.96,SE,136,1.0,3.0,61,0.00,,,-99.99,VWS V12.06,2013-08-26 15:30:00,
2013-08-26 11:45:00,75.3,60.9,29.96,East,96,0.0,6.0,61,0.00,,,-99.99,VWS V12.06,2013-08-26 15:45:00,
2013-08-26 12:00:00,75.8,61.4,29.95,NE,47,2.0,5.0,61,0.00,,,-99.99,VWS V12.06,2013-08-26 16:00:00,
2013-08-26 12:15:00,74.7,60.8,29.94,NNW,347,0.0,7.0,62,0.00,,,-99.99,VWS V12.06,2013-08-26 16:15:00,
2013-08-26 12:30:00,73.9,61.0,29.94,NNE,27,2.0,5.0,64,0.00,,,-99.99,VWS V12.06,2013-08-26 16:30:00,
2013-08-26 12:45:00,73.5,61.0,29.94,North,353,0.0,5.0,65,0.00,,,-99.99,VWS V12.06,2013-08-26 16:45:00,
2013-08-26 13:00:00,73.3,60.8,29.94,SW,223,1.0,2.0,65,0.00,,,-99.99,VWS V12.06,2013-08-26 17:00:00,
2013-08-26 13:15:00,74.4,61.9,29.93,NNW,335,0.0,1.0,65,0.00,,,-99.99,VWS V12.06,2013-08-26 17:15:00,
2013-08-26 13:30:00,75.1,63.0,29.93,North,7,1.0,2.0,66,0.00,,,-99.99,VWS V12.06,2013-08-26 17:30:00,
2013-08-26 13:45:00,75.8,61.9,29.92,NNE,25,0.0,6.0,62,0.00,,,-99.99,VWS V12.06,2013-08-26 17:45:00,
2013-08-26 14:00:00,76.5,63.4,29.91,NNE,23,0.0,2.0,64,0.00,,,-99.99,VWS V12.06,2013-08-26 18:00:00,
2013-08-26 14:15:00,76.0,63.0,29.91,NNE,17,0.0,1.0,64,0.00,,,-99.99,VWS V12.06,2013-08-26 18:15:00,
2013-08-26 14:30:00,75.1,62.5,29.91,ESE,112,0.0,1.0,65,0.00,,,-99.99,VWS V12.06,2013-08-26 18:30:00,
2013-08-26 14:45:00,74.9,62.8,29.90,North,1,2.0,2.0,66,0.00,,,-99.99,VWS V12.06,2013-08-26 18:45:00,
2013-08-26 15:00:00,74.7,63.0,29.90,North,0,0.0,0.0,67,0.00,,,-99.99,VWS V12.06,2013-08-26 19:00:00,
2013-08-26 15:15:00,74.7,63.5,29.89,NW,319,0.0,0.0,68,0.00,,,-99.99,VWS V12.06,2013-08-26 19:15:00,
2013-08-26 15:30:00,75.1,63.4,29.89,NW,319,0.0,1.0,67,0.00,,,-99.99,VWS V12.06,2013-08-26 19:30:00,
2013-08-26 15:45:00,75.6,64.3,29.89,NW,319,0.0,0.0,68,0.00,,,-99.99,VWS V12.06,2013-08-26 19:45:00,
2013-08-26 16:00:00,76.0,64.7,29.88,West,263,0.0,1.0,68,0.00,,,-99.99,VWS V12.06,2013-08-26 20:00:00,
2013-08-26 16:15:00,76.3,65.0,29.87,NNW,342,0.0,0.0,68,0.00,,,-99.99,VWS V12.06,2013-08-26 20:15:00,
2013-08-26 16:30:00,76.1,64.4,29.87,NNE,13,0.0,2.0,67,0.00,,,-99.99,VWS V12.06,2013-08-26 20:30:00,
2013-08-26 16:45:00,76.5,64.7,29.87,NNE,31,0.0,3.0,67,0.00,,,-99.99,VWS V12.06,2013-08-26 20:45:00,
2013-08-26 17:00:00,76.1,65.2,29.87,SW,217,0.0,2.0,69,0.00,,,-99.99,VWS V12.06,2013-08-26 21:00:00,
2013-08-26 17:15:00,75.8,65.3,29.86,WSW,253,0.0,3.0,70,0.00,,,-99.99,VWS V12.06,2013-08-26 21:15:00,
2013-08-26 17:30:00,75.6,64.7,29.86,SSW,195,0.0,0.0,69,0.00,,,-99.99,VWS V12.06,2013-08-26 21:30:00,
2013-08-26 17:45:00,75.4,64.9,29.86,North,11,0.0,2.0,70,0.00,,,-99.99,VWS V12.06,2013-08-26 21:45:00,
2013-08-26 18:00:00,74.9,64.9,29.86,West,278,0.0,0.0,71,0.00,,,-99.99,VWS V12.06,2013-08-26 22:00:00,
2013-08-26 18:15:00,74.4,64.8,29.85,North,6,0.0,5.0,72,0.00,,,-99.99,VWS V12.06,2013-08-26 22:15:00,
2013-08-26 18:30:00,73.7,64.5,29.86,SSW,203,0.0,1.0,73,0.00,,,-99.99,VWS V12.06,2013-08-26 22:30:00,
2013-08-26 18:45:00,73.2,64.4,29.85,SE,137,0.0,1.0,74,0.00,,,-99.99,VWS V12.06,2013-08-26 22:45:00,
2013-08-26 19:00:00,72.8,64.4,29.85,North,0,0.0,1.0,75,0.00,,,-99.99,VWS V12.06,2013-08-26 23:00:00,
2013-08-26 19:15:00,72.7,64.7,29.84,NNW,346,0.0,0.0,76,0.00,,,-99.99,VWS V12.06,2013-08-26 23:15:00,
2013-08-26 19:30:00,72.3,64.3,29.84,NNW,344,0.0,1.0,76,0.00,,,-99.99,VWS V12.06,2013-08-26 23:30:00,
2013-08-26 19:45:00,72.0,64.4,29.85,NW,320,0.0,0.0,77,0.00,,,-99.99,VWS V12.06,2013-08-26 23:45:00,
2013-08-26 20:00:00,71.8,64.6,29.85,NW,320,0.0,0.0,78,0.00,,,-99.99,VWS V12.06,2013-08-27 00:00:00,
2013-08-26 20:15:00,71.5,64.7,29.85,NNW,336,0.0,0.0,79,0.00,,,-99.99,VWS V12.06,2013-08-27 00:15:00,
2013-08-26 20:30:00,71.1,64.6,29.84,NNW,332,0.0,1.0,80,0.00,,,-99.99,VWS V12.06,2013-08-27 00:30:00,
2013-08-26 20:45:00,70.9,64.4,29.85,SSE,161,0.0,0.0,80,0.00,,,-99.99,VWS V12.06,2013-08-27 00:45:00,
2013-08-26 21:00:00,70.8,64.3,29.85,South,176,0.0,1.0,80,0.00,,,-99.99,VWS V12.06,2013-08-27 01:00:00,
2013-08-26 21:15:00,70.6,64.5,29.85,North,0,0.0,2.0,81,0.00,,,-99.99,VWS V12.06,2013-08-27 01:15:00,
2013-08-26 21:30:00,70.6,64.5,29.84,SW,220,0.0,2.0,81,0.00,,,-99.99,VWS V12.06,2013-08-27 01:30:00,
2013-08-26 21:45:00,70.4,64.3,29.85,SW,220,0.0,0.0,81,0.00,,,-99.99,VWS V12.06,2013-08-27 01:45:00,
2013-08-26 22:00:00,70.4,64.7,29.85,SSE,152,0.0,0.0,82,0.00,,,-99.99,VWS V12.06,2013-08-27 02:00:00,
2013-08-26 22:15:00,70.3,64.6,29.85,North,352,0.0,0.0,82,0.00,,,-99.99,VWS V12.06,2013-08-27 02:15:00,
2013-08-26 22:30:00,70.3,64.6,29.84,North,350,0.0,0.0,82,0.00,,,-99.99,VWS V12.06,2013-08-27 02:30:00,
2013-08-26 22:45:00,70.1,64.7,29.84,North,352,0.0,0.0,83,0.00,,,-99.99,VWS V12.06,2013-08-27 02:45:00,
2013-08-26 23:00:00,69.8,65.1,29.83,NNW,344,0.0,0.0,85,0.00,,,-99.99,VWS V12.06,2013-08-27 03:00:00,
2013-08-26 23:15:00,69.3,65.3,29.83,NNW,347,0.0,0.0,87,0.00,,,-99.99,VWS V12.06,2013-08-27 03:15:00,
2013-08-26 23:30:00,68.8,65.8,29.82,North,359,0.0,0.0,90,0.01,,,-99.99,VWS V12.06,2013-08-27 03:30:00,
2013-08-26 23:45:00,68.4,65.7,29.82,NNW,342,0.0,0.0,91,0.03,,,-99.99,VWS V12.06,2013-08-27 03:45:00,